Regional Weather Roundup
Issued by NWS

Home | Current Version | Previous Version | Text Only | Print | Product List | Glossary On
Versions: 1 2 3 4 5 6 7 8 9 10 11 12 13 14 15 16 17 18 19 20 21 22 23 24 25 26 27 28 29 30 31 32 33 34 35 36 37 38 39 40 41 42 43 44 45 46 47 48 49 50
000
ASUS43 KDTX 190801
RWRMI
MICHIGAN HOURLY REGIONAL WEATHER ROUNDUP
NATIONAL WEATHER SERVICE DETROIT/PONTIAC MI
300 AM EST SUN NOV 19 2017

NOTE: "FAIR" INDICATES FEW OR NO CLOUDS BELOW 12,000 FEET WITH NO
SIGNIFICANT WEATHER AND/OR OBSTRUCTION TO VISIBILITY.

MIZ047>049-052>055-059>063-066>070-074>076-081>083-190900-
SOUTHEAST LOWER MICHIGAN

CITY           SKY/WX    TMP DP  RH WIND       PRES   REMARKS
ADRIAN         CLOUDY    37  29  72 N16G28    29.70R WCI  28
ALMA           CLOUDY    36  27  71 NW13G25   29.70R WCI  27
ANN ARBOR      CLOUDY    37  28  70 NW21G31   29.66R WCI  26
BAD AXE        CLOUDY    35  31  85 NW17G24   29.59R WCI  25
CARO           CLOUDY    36  29  76 NW16G22   29.63R WCI  26
DETROIT CITY   CLOUDY    43  28  55 NW13G25   29.62R
DETROIT        CLOUDY    38  31  76 NW23G29   29.64R WCI  27
FLINT          CLOUDY    36  27  69 NW18G29   29.66R WCI  26
GROSSE ILE     CLOUDY    39  29  68 NW16G30   29.64R WCI  30
HILLSDALE      CLOUDY    36  30  80 NW12      29.71R WCI  27
HOWELL         CLOUDY    36  31  82 NW10G17   29.67R WCI  29

CITY           SKY/WX    TMP DP  RH WIND       PRES   REMARKS
JACKSON        CLOUDY    36  29  75 W16G26    29.71R WCI  26
LAMBERTVILLE   CLOUDY    40  32  71 NW12G18   29.69R WCI  33
LANSING        CLOUDY    36  29  75 NW16G23   29.72R WCI  26
LAPEER         CLOUDY    36  29  74 NW8G23    29.63R WCI  30
MASON          CLOUDY    37  31  78 NW13G22   29.70R WCI  29
MONROE         DRIZZLE   39  32  75 NW17G25   29.66R WCI  30
MT. CLEMENS    CLOUDY    38  32  79 NW20G28   29.59R WCI  28
PONTIAC        CLOUDY    36  31  82 NW21G33   29.62R WCI  25
PORT HOPE        N/A     38  30  73 NW25G39   29.54R WCI  27
PORT HURON     CLOUDY    37  30  75 NW17G24   29.58R WCI  28
TRI CITIES     CLOUDY    36  31  82 NW18      29.67R WCI  26
MIDLAND        CLOUDY    36  31  83 W10       29.66R WCI  28
TROY           CLOUDY    39  30  69 NW15G23   29.64R WCI  31
SAGINAW HB     CLOUDY    36  30  80 NW13G21   29.66R WCI  27
$$
MIZ043>046-050>051-056>058-064>065-071>073-077>080-190900-
SOUTHWEST LOWER MICHIGAN

CITY           SKY/WX    TMP DP  RH WIND       PRES   REMARKS
BATTLE CREEK   CLOUDY    36  30  79 NW15G24   29.75R WCI  27
BENTON HARBOR  CLOUDY    39  28  64 NW9G18    29.80R WCI  33
BIG RAPIDS     CLOUDY    33  28  81 NW12G20   29.71R WCI  24
COLDWATER      CLOUDY    37  31  79 NW10G16   29.75R WCI  30
FREMONT        CLOUDY    34  30  86 NW15      29.75R WCI  24
HOLLAND        FLURRIES  37  30  75 N8        29.78R WCI  31
GRAND RAPIDS   CLOUDY    35  28  75 NW18G32   29.75R WCI  24
IONIA          LGT SNOW  34  31  88 W16       29.73R WCI  24
KALAMAZOO      LGT RAIN  35  30  82 NW9       29.77R WCI  28
LUDINGTON      CLOUDY    34  29  80 NW12G17   29.76R WCI  25
MARSHALL       CLOUDY    36  28  73 NW12G25   29.73R WCI  28
MOUNT PLEASANT CLOUDY    36  26  67 NW14G28   29.68R WCI  27
MUSKEGON       CLOUDY    36  31  82 NW8       29.78R WCI  30
SOUTH HAVEN    CLOUDY    39  29  67 NW16G24   29.79R WCI  30
$$
MIZ016>042-190900-
NORTHERN LOWER MICHIGAN

CITY           SKY/WX    TMP DP  RH WIND       PRES   REMARKS
ALPENA         CLOUDY    35  29  78 NW9G22    29.59R WCI  28
BEAVER ISLAND  CLOUDY    32  26  78 NW10G26   29.71R WCI  24
BELLAIRE       CLOUDY    34  28  78 NW14G21   29.70R WCI  25
CADILLAC       CLOUDY    31  28  86 NW9       29.68R WCI  23
CHARLEVOIX     CLOUDY    34  27  75 NW24G33   29.73R WCI  21
FRANKFORT      FLURRIES  35  28  76 NW10G20   29.75R WCI  27
GAYLORD        LGT SNOW  29  26  89 NW8G16    29.63R VSB 3/4 WCI  21
GRAYLING       CLOUDY    32  25  76 NW12G22   29.65R WCI  23
HARBOR SPRINGS LGT SNOW  31  30  96 W9        29.68R WCI  23
MANISTEE       LGT RAIN  35  27  72 NW12G21   29.75R WCI  27
OSCODA         CLOUDY    34  29  80 NW20G26   29.58R WCI  23
PELLSTON       CLOUDY    32  27  81 NW13      29.67R WCI  22
ROGERS CITY    CLOUDY    34  27  74 NW18G28   29.62R WCI  23
TRAVERSE CITY  FLURRIES  34  30  85 NW13      29.71R WCI  25
$$
MIZ007>008-015-190900-
EASTERN UPPER MICHIGAN

CITY           SKY/WX    TMP DP  RH WIND       PRES   REMARKS
KINROSS        CLOUDY    31  25  78 N21G28    29.63R WCI  18
MACKINAC ISLAN CLOUDY    33  25  71 NW13G23   29.65R WCI  24
NEWBERRY       CLOUDY    28  24  85 NW16      29.68R WCI  17
S. S. MARIE    CLOUDY    31  24  75 N14G21    29.62R WCI  21
MUNISING         N/A     31  26  82 N24G33    29.76R WCI  17
$$
MIZ004>006-011>014-085-190900-
CENTRAL UPPER MICHIGAN

CITY           SKY/WX    TMP DP  RH WIND       PRES   REMARKS
MANISTIQUE     CLOUDY    29  19  66 NW16G26   29.74R WCI  18
ESCANABA       FLURRIES  28  22  78 NW12      29.80R WCI  18
MENOMINEE      FLURRIES  29  20  69 N14       29.83R WCI  18
SAWYER-GWINN   FLURRIES  24  19  78 NW14G21   29.78R WCI  12
$$
MIZ001>003-009>011-084-190900-
WESTERN UPPER MICHIGAN

CITY           SKY/WX    TMP DP  RH WIND       PRES   REMARKS
IRON MOUNTAIN  FLURRIES  26  16  65 NW10G23   29.79R WCI  16
HOUGHTON       CLOUDY    22  12  65 NW22G30   29.80R WCI   6
COPPER HARBOR    N/A     28  21  75 N20       29.81R WCI  15
IRONWOOD       FLURRIES N/A N/A N/A W15       29.89S
$$

ABBREVIATIONS USED IN REMARKS
   TC - TEMPERATURE IN CELSIUS
  WCI - WIND CHILL INDEX
   HX - HEAT INDEX
  VSB - VISIBILITY




USA.gov is the U.S. government's official web portal to all federal, state and local government web resources and services.